Flag for United Kingdom Weather past 2 weeks in Swanage, England, United Kingdom

Now
39 °F

Passing clouds.


Feels Like: 29 °F
Forecast: 36 / 46 °F
Wind: 22 mph from Northwest

Location: Bournemouth Airport

Current Time: Dec 27, 2014 at 4:40:51 AM

Latest Report: Dec 27, 2014 at 2:50 AM


Visibility: N/A

Pressure: 29.74 "Hg

Humidity: 75%

Dew point: 32 °F

Location of SwanageLocation

Historic Weather in Swanage — Graph

°F

Swanage temperature yesterday

Maximum temperature yesterday: 52 °F (at 7:20 PM)
Minimum temperature yesterday: 27 °F (at 5:20 AM)
Average temperature yesterday: 41 °F

Past Weeks' High & Low Weather Summary

 TemperatureHumidityPressure
High55 °F (Dec 17, 12:50 PM)100% (Dec 12, 10:20 PM)30.51 "Hg (Dec 12, 10:20 PM)
Low25 °F (Dec 13, 9:50 PM)62% (Dec 24, 1:20 PM)29.33 "Hg (Dec 12, 4:50 AM)
Average46 °F88%30.00 "Hg
* Reported Dec 12 2:20 AM — Dec 27 2:50 AM, Swanage, Weather by CustomWeather, © 2014

Note: Actual official high and low records may vary slightly from our data, if they occured in-between our weather recording intervals... More about our weather records

Advertising

Swanage weather history for previous 24 hours

 ConditionsComfort  
Time TempWeatherWind HumidityBarometerVisibility
2:50 AM
Dec 27
39 °FPassing clouds.22 mph75%29.74 "HgN/A
2:20 AM39 °FPassing clouds.24 mph75%29.71 "HgN/A
1:50 AM39 °FPassing clouds.21 mph75%29.71 "HgN/A
1:20 AM39 °FPassing clouds.23 mph75%29.71 "HgN/A
12:50 AM45 °FPassing clouds.23 mph87%29.65 "HgN/A
12:20 AM46 °FPassing clouds.23 mph82%29.65 "HgN/A
11:50 PM
Dec 26
46 °FPassing clouds.29 mph82%29.65 "HgN/A
11:20 PM48 °FPassing clouds.24 mph82%29.65 "HgN/A
10:50 PM50 °FPartly cloudy.22 mph88%29.65 "HgN/A
10:20 PM50 °FPassing clouds.18 mph88%29.65 "HgN/A
9:50 PM50 °FPassing clouds.17 mph94%29.68 "HgN/A
9:20 PM50 °FPartly cloudy.21 mph94%29.71 "HgN/A
8:50 PM50 °FPartly cloudy.22 mph94%29.71 "HgN/A
8:20 PM52 °FPassing clouds.20 mph88%29.74 "HgN/A
7:50 PM52 °FPassing clouds.16 mph88%29.77 "HgN/A
7:20 PM52 °FPassing clouds.16 mph94%29.80 "HgN/A
6:50 PM50 °FPassing clouds.16 mph100%29.83 "HgN/A
6:20 PM50 °FRain. Passing clouds.17 mph100%29.86 "Hg5 mi
5:50 PM50 °FHeavy rain. Passing clouds.18 mph94%29.89 "Hg4 mi
5:20 PM48 °FRain. Passing clouds.16 mph100%29.95 "Hg4 mi
4:50 PM48 °FRain. Passing clouds.15 mph94%29.98 "Hg4 mi
4:20 PM46 °FRain. Passing clouds.17 mph93%30.04 "Hg3 mi
3:20 PM45 °FRain. Partly sunny.14 mph93%30.12 "Hg4 mi
2:50 PM45 °FRain. Broken clouds.14 mph93%30.15 "HgN/A
2:20 PM43 °FRain. Partly sunny.12 mph93%30.18 "Hg4 mi
1:50 PM43 °FLight rain. Partly sunny.9 mph93%30.21 "HgN/A
1:20 PM43 °FLight rain. Partly sunny.5 mph93%30.24 "Hg5 mi
12:50 PM41 °FLight rain. Partly sunny.3 mph100%30.27 "Hg4 mi
12:20 PM37 °FLight rain. Broken clouds.1 mph100%30.30 "Hg4 mi
11:50 AM36 °FSunny.2 mph100%30.33 "Hg10 mi
11:20 AM36 °FSunny.1 mph93%30.36 "Hg10 mi
10:50 AM34 °FSunny.1 mph93%30.39 "Hg10 mi
10:20 AM32 °FSunny.1 mph100%30.39 "Hg10 mi
9:50 AM32 °FSunny.1 mph93%30.42 "Hg10 mi
9:20 AM30 °FSunny.3 mph100%30.42 "Hg10 mi
8:50 AM28 °FSunny.1 mph100%30.42 "Hg10 mi
8:20 AM28 °FSunny.1 mph100%30.45 "Hg10 mi
7:50 AM28 °FClear.No wind100%30.45 "Hg10 mi
7:20 AM28 °FClear.2 mph100%30.45 "Hg10 mi
6:50 AM28 °FClear.1 mph93%30.45 "Hg10 mi
6:20 AM28 °FClear.1 mph100%30.45 "Hg10 mi
5:50 AM28 °FClear.1 mph93%30.48 "Hg10 mi
5:20 AM27 °FClear.1 mph100%30.48 "Hg10 mi
4:50 AM28 °FClear.2 mph93%30.48 "Hg6 mi
Weather by CustomWeather, © 2014

See weather overviewHow to use our weather pages